FW9392 Weather Reports


Display with metric or nautical units.
time (UTC)temp
F
wind
direction
speed
MPH
gust
MPH
rain 1hr
in
rain 24hr
in
rain mn
in
humidity
%
barometer
mb
20240304111548 64 0 0.0 0.0 0.00 0.00 0.00 89 1024.4
20240304110057 64 0 0.0 0.0 0.00 0.00 0.00 89 1024.4
20240304104602 64 0 0.0 0.0 0.00 0.00 0.00 89 1024.3
20240304103102 64 0 0.0 0.0 0.00 0.00 0.00 88 1024.4
20240304101548 64 0 0.0 0.0 0.00 0.00 0.00 88 1024.1
20240304100059 64 0 0.0 0.0 0.00 0.00 0.00 87 1024.1
20240304094605 64 0 0.0 0.0 0.00 0.00 0.00 87 1024.0
20240304093047 64 0 0.0 0.0 0.00 0.00 0.00 87 1023.5
20240304091556 65 0 0.0 0.0 0.00 0.00 0.00 87 1023.3
20240304090051 65 0 0.0 0.0 0.00 0.00 0.00 85 1023.1
20240304084559 65 0 0.0 0.0 0.00 0.00 0.00 84 1022.9
20240304083059 66 0 0.0 0.0 0.00 0.00 0.00 83 1022.9
20240304081605 67 0 0.0 0.0 0.00 0.00 0.00 83 1022.8
20240304080101 68 0 0.0 0.0 0.00 0.00 0.00 81 1022.6
20240304074554 68 0 0.0 0.0 0.00 0.00 0.00 80 1022.6
20240304073101 69 0 0.0 0.0 0.00 0.00 0.00 81 1022.4
20240304071550 69 0 0.0 1.0 0.00 0.00 0.00 78 1022.3
20240304070058 69 0 0.0 1.0 0.00 0.00 0.00 81 1022.2
20240304064553 69 0 0.0 0.0 0.00 0.00 0.00 78 1022.2
20240304063105 68 0 0.0 0.0 0.00 0.00 0.00 81 1022.2
20240304061555 69 0 0.0 0.0 0.00 0.00 0.00 81 1022.1
20240304060112 69 0 0.0 1.0 0.00 0.00 0.00 79 1022.1
20240304054607 69 0 0.0 1.0 0.00 0.00 0.00 80 1022.0
20240304053054 70 0 0.0 4.0 0.00 0.00 0.00 80 1022.0
20240304051600 70 0 0.0 1.0 0.00 0.00 0.00 76 1022.1
20240304050059 71 0 0.0 1.0 0.00 0.00 0.00 77 1022.1
20240304044604 71 0 0.0 1.0 0.00 0.00 0.00 78 1022.3
20240304043100 70 0 0.0 1.0 0.00 0.00 0.00 77 1022.2
20240304041558 70 0 0.0 2.0 0.00 0.00 0.00 77 1022.3
20240304040057 70 0 0.0 1.0 0.00 0.00 0.00 79 1022.3
20240304034605 70 0 0.0 0.0 0.00 0.00 0.00 78 1022.4
20240304033105 70 0 0.0 0.0 0.00 0.00 0.00 81 1022.4
20240304031549 70 0 0.0 1.0 0.00 0.00 0.00 78 1022.5
20240304030058 70 0 0.0 3.0 0.00 0.00 0.00 78 1022.4
20240304024609 70 0 0.0 1.0 0.00 0.00 0.00 78 1022.4
20240304023105 70 0 0.0 1.0 0.00 0.00 0.00 79 1022.4
20240304021545 70 0 0.0 0.0 0.00 0.00 0.00 79 1022.4
20240304020057 71 0 0.0 1.0 0.00 0.00 0.00 77 1022.4
20240304014558 70 0 0.0 0.0 0.00 0.00 0.00 78 1022.5
20240304013055 71 0 0.0 4.0 0.00 0.00 0.00 75 1022.4
20240304011549 71 0 0.0 1.0 0.00 0.00 0.00 76 1022.6
20240304010052 71 0 0.0 2.0 0.00 0.00 0.00 75 1022.6
20240304004548 71 0 0.0 1.0 0.00 0.00 0.00 80 1022.7
20240304003054 71 0 0.0 0.0 0.00 0.00 0.00 77 1022.7
20240304001548 70 0 0.0 0.0 0.00 0.00 0.00 80 1022.6
20240304000050 70 0 0.0 0.0 0.00 0.00 0.00 77 1022.7
20240303234555 70 0 0.0 1.0 0.00 0.00 0.00 78 1022.8
20240303233049 69 0 0.0 0.0 0.00 0.00 0.00 82 1022.8
20240303231630 68 0 0.0 1.0 0.00 0.00 0.00 80 1022.7
20240303230101 68 0 0.0 1.0 0.00 0.00 0.00 83 1022.6
20240303224605 67 0 0.0 1.0 0.00 0.00 0.00 80 1022.5
20240303223049 67 0 0.0 0.0 0.00 0.00 0.00 82 1022.2
20240303221544 67 0 0.0 1.0 0.00 0.00 0.00 85 1021.8
20240303220105 67 0 0.0 1.0 0.00 0.00 0.00 84 1021.6
20240303214555 67 0 0.0 0.0 0.00 0.00 0.00 86 1021.3
20240303213058 67 0 0.0 1.0 0.00 0.00 0.00 87 1021.3
20240303211558 66 0 0.0 1.0 0.00 0.00 0.00 88 1020.9
20240303210100 66 0 0.0 0.0 0.00 0.00 0.00 90 1020.6
20240303204556 66 0 0.0 0.0 0.00 0.00 0.00 91 1020.5
20240303203102 0 0.0 0.0 0.00 0.00 0.00 1020.4
20240303201607 0 0.0 0.0 0.00 0.00 0.00 1020.1
20240303200111 0 0.0 0.0 0.00 0.00 0.00 1020.0
20240303194552 0 0.0 0.0 0.00 0.00 0.00 1019.8
20240303193050 0 0.0 0.0 0.00 0.00 0.00 1019.6
20240303191546 0 0.0 0.0 0.00 0.00 0.00 1019.3
20240303190053 0 0.0 0.0 0.00 0.00 0.00 1019.0
20240303184550 0 0.0 0.0 0.00 0.00 0.00 1018.9
20240303183044 0 0.0 0.0 0.00 0.00 0.00 1018.6
20240303181555 0 0.0 0.0 0.00 0.00 0.00 1018.4
20240303180048 0 0.0 0.0 0.00 0.00 0.00 1018.1
20240303174549 0 0.0 0.0 0.00 0.00 0.00 1018.0
20240303173045 0 0.0 0.0 0.00 0.00 0.00 1017.9
20240303171551 0 0.0 0.0 0.00 0.00 0.00 1017.6
20240303170056 0 0.0 0.0 0.00 0.00 0.00 1017.5
20240303164554 0 0.0 0.0 0.00 0.00 0.00 1017.3
20240303163053 0 0.0 0.0 0.00 0.00 0.00 1017.3
20240303161548 0 0.0 0.0 0.00 0.00 0.00 1017.2
20240303160056 0 0.0 0.0 0.00 0.00 0.00 1017.1
20240303154552 0 0.0 0.0 0.00 0.00 0.00 1017.2
20240303153056 0 0.0 1.0 0.00 0.00 0.00 89 1017.0
20240303151550 70 0 0.0 2.0 0.00 0.00 0.00 91 1017.0
20240303150057 70 0 0.0 0.0 0.00 0.00 0.00 94 1016.8
20240303144604 70 0 0.0 0.0 0.00 0.00 0.00 95 1016.9
20240303143104 69 0 0.0 0.0 0.00 0.00 0.00 95 1016.7
20240303141626 69 0 0.0 0.0 0.00 0.00 0.00 95 1016.6
20240303140057 68 0 0.0 0.0 0.00 0.00 0.00 95 1016.5
20240303134558 68 0 0.0 0.0 0.00 0.00 0.00 94 1016.5
20240303133101 68 0 0.0 0.0 0.00 0.00 0.00 94 1016.4
20240303131610 68 0 0.0 0.0 0.00 0.00 0.00 94 1016.1
20240303130108 68 0 0.0 0.0 0.00 0.00 0.00 94 1015.8
20240303124552 69 0 0.0 0.0 0.00 0.00 0.00 94 1015.5
20240303123055 69 0 0.0 0.0 0.00 0.00 0.00 93 1015.3
20240303121600 69 0 0.0 0.0 0.00 0.00 0.00 93 1015.2
20240303120104 69 0 0.0 0.0 0.00 0.00 0.00 93 1015.1
20240303114605 70 0 0.0 0.0 0.00 0.00 0.00 93 1015.1
20240303113107 70 0 0.0 0.0 0.00 0.00 0.00 93 1015.0